Location: Gad�tanya
(48.0500°N, 20.8500°E)
Time: 23:09:44
(UTC+00:00)

Cosmos 1455 - Pass Details

Date: 05 July 2020
Orbit: 500 x 521 km, 82.5° (Epoch: 05 August)

Event Time Altitude Azimuth Distance (km) Brightness Sun altitude
Rises 20:06:28 0° 340° (NNW) 2,644 7.5 -11.2°
Reaches altitude 10° 20:08:47 10° 329° (NNW) 1,755 6.5 -11.4°
Maximum altitude 20:12:06 28° 270° (W) 1,002 4.0 -11.8°
Drops below altitude 10° 20:15:24 10° 210° (SSW) 1,750 4.6 -12.1°
Enters shadow 20:16:47 - 202° (SSW) 2,264 5.1 -12.2°
